2023/05/11 00:00:00,51.8, 7.9
2023/05/11 00:10:00,51.8, 7.8
2023/05/11 00:20:00,51.8, 7.6
2023/05/11 00:30:00,51.8, 7.2
2023/05/11 00:40:00,51.8, 7.6
2023/05/11 00:50:00,51.9, 7.8
2023/05/11 01:00:00,51.8, 7.8
2023/05/11 01:10:00,51.5, 8.3
2023/05/11 01:20:00,51.6, 7.8
2023/05/11 01:30:00,51.5, 7.8
2023/05/11 01:40:00,51.8, 7.6
2023/05/11 01:50:00,51.8, 7.4
2023/05/11 02:00:00,51.8, 7.2
2023/05/11 02:10:00,51.9, 6.7
2023/05/11 02:20:00,51.9, 6.4
2023/05/11 02:30:00,51.9, 6.7
2023/05/11 02:40:00,51.9, 7.0
2023/05/11 02:50:00,51.9, 6.2
2023/05/11 03:00:00,52.0, 6.2
2023/05/11 03:10:00,52.0, 6.4
2023/05/11 03:20:00,51.9, 6.6
2023/05/11 03:30:00,52.0, 6.5
2023/05/11 03:40:00,51.9, 6.5
2023/05/11 03:50:00,51.9, 6.3
2023/05/11 04:00:00,51.9, 6.5
2023/05/11 04:10:00,51.9, 6.0
2023/05/11 04:20:00,51.9, 5.9
2023/05/11 04:30:00,51.9, 5.4
2023/05/11 04:40:00,52.0, 5.7
2023/05/11 04:50:00,51.9, 6.0
2023/05/11 05:00:00,51.9, 5.7
2023/05/11 05:10:00,51.9, 6.0
2023/05/11 05:20:00,51.9, 6.0
2023/05/11 05:30:00,51.8, 6.0
2023/05/11 05:40:00,51.8, 6.0
2023/05/11 05:50:00,51.8, 6.2
2023/05/11 06:00:00,51.9, 6.4
2023/05/11 06:10:00,51.9, 6.4
2023/05/11 06:20:00,51.9, 7.1
2023/05/11 06:30:00,52.0, 8.2
2023/05/11 06:40:00,52.0, 8.1
2023/05/11 06:50:00,52.2, 8.8
2023/05/11 07:00:00,54.3, 9.6
2023/05/11 07:10:00,56.3,10.8
2023/05/11 07:20:00,56.1,11.4
2023/05/11 07:30:00,55.5,12.8
2023/05/11 07:40:00,55.0,14.2
2023/05/11 07:50:00,54.5,14.2
2023/05/11 08:00:00,54.5,14.9
2023/05/11 08:10:00,54.4,16.2
2023/05/11 08:20:00,54.7,16.8
2023/05/11 08:30:00,54.8,18.7
2023/05/11 08:40:00,54.9,18.9
2023/05/11 08:50:00,54.9,18.9
2023/05/11 09:00:00,55.0,19.3
2023/05/11 09:10:00,55.1,21.2
2023/05/11 09:20:00,55.3,21.7
2023/05/11 09:30:00,55.0,22.6
2023/05/11 09:40:00,55.0,22.5
2023/05/11 09:50:00,54.5,24.0
2023/05/11 10:00:00,53.3,22.0
2023/05/11 10:10:00,51.5,23.3
2023/05/11 10:20:00,51.1,23.5
2023/05/11 10:30:00,51.6,24.3
2023/05/11 10:40:00,51.0,23.6
2023/05/11 10:50:00,52.0,23.0
2023/05/11 11:00:00,48.1,22.7
2023/05/11 11:10:00,48.8,22.4
2023/05/11 11:20:00,45.0,22.2
2023/05/11 11:30:00,43.0,22.5
2023/05/11 11:40:00,46.3,22.0
2023/05/11 11:50:00,47.7,22.3
2023/05/11 12:00:00,45.9,23.7
2023/05/11 12:10:00,45.4,23.3
2023/05/11 12:20:00,49.5,23.7
2023/05/11 12:30:00,53.2,23.3
2023/05/11 12:40:00,52.7,23.2
2023/05/11 12:50:00,52.1,22.8
2023/05/11 13:00:00,53.0,22.8
2023/05/11 13:10:00,52.9,22.5
2023/05/11 13:20:00,53.4,23.0
2023/05/11 13:30:00,54.5,23.4
2023/05/11 13:40:00,52.8,23.2
2023/05/11 13:50:00,50.2,23.3
2023/05/11 14:00:00,51.4,23.8
2023/05/11 14:10:00,49.2,22.9
2023/05/11 14:20:00,11.4,24.0
2023/05/11 14:30:00,35.1,23.3
2023/05/11 14:40:00,49.6,22.8
2023/05/11 14:50:00,52.5,23.4
2023/05/11 15:00:00,53.8,24.7
2023/05/11 15:10:00,---,23.7
2023/05/11 15:20:00,56.4,24.8
2023/05/11 15:30:00,---,24.3
2023/05/11 15:40:00,57.6,24.2
2023/05/11 15:50:00,56.8,24.5
2023/05/11 16:00:00,56.4,24.7
2023/05/11 16:10:00,---,23.8
2023/05/11 16:20:00,---,24.0
2023/05/11 16:30:00,59.8,22.7
2023/05/11 16:40:00,---,21.9
2023/05/11 16:50:00,55.1,22.6
2023/05/11 17:00:00,54.2,22.4
2023/05/11 17:10:00,54.4,22.0
2023/05/11 17:20:00,52.2,21.5
2023/05/11 17:30:00,---,22.0
2023/05/11 17:40:00,53.5,21.4
2023/05/11 17:50:00,53.2,19.3
2023/05/11 18:00:00,52.8,18.7
2023/05/11 18:10:00,53.5,18.2
2023/05/11 18:20:00,54.5,17.2
2023/05/11 18:30:00,54.5,15.5
2023/05/11 18:40:00,54.8,14.5
2023/05/11 18:50:00,54.3,14.1
2023/05/11 19:00:00,52.5,13.6
2023/05/11 19:10:00,46.4,12.5
2023/05/11 19:20:00,43.5,11.6
2023/05/11 19:30:00,52.2,11.4
2023/05/11 19:40:00,55.3,10.6
2023/05/11 19:50:00,55.7,10.6
2023/05/11 20:00:00,55.9,10.2
2023/05/11 20:10:00,55.8, 9.9
2023/05/11 20:20:00,55.6, 9.6
2023/05/11 20:30:00,55.7, 9.6
2023/05/11 20:40:00,55.8, 9.2
2023/05/11 20:50:00,55.9, 9.1
2023/05/11 21:00:00,57.2, 8.6
2023/05/11 21:10:00,57.0, 8.5
2023/05/11 21:20:00,55.7, 8.4
2023/05/11 21:30:00,54.9, 8.1
2023/05/11 21:40:00,54.7, 7.9
2023/05/11 21:50:00,52.6, 7.8
2023/05/11 22:00:00,50.9, 7.6
2023/05/11 22:10:00,51.1, 7.5
2023/05/11 22:20:00,50.3, 7.2
2023/05/11 22:30:00,49.3, 7.1
2023/05/11 22:40:00,50.0, 6.9
2023/05/11 22:50:00,50.8, 7.1
2023/05/11 23:00:00,50.7, 7.1
2023/05/11 23:10:00,51.9, 7.3
2023/05/11 23:20:00,53.9, 7.3
2023/05/11 23:30:00,53.0, 7.1
2023/05/11 23:40:00,54.3, 7.1
2023/05/11 23:50:00,55.0, 6.9
